Weather History for Bullhead City, AZ

Change the Weather History Date:

Monday, May 6, 2013

  Actual Average Record
Temperature  
Mean Temperature 72 °F -  
Max Temperature 80 °F 89 °F 108 °F (1989)
Min Temperature 64 °F 67 °F 37 °F (2001)
Cooling Degree Days 7    
Growing Degree Days 22 (Base 50)    
Moisture  
Dew Point 38 °F    
Average Humidity 28    
Maximum Humidity 46    
Minimum Humidity 18    
Precipitation  
Precipitation 0.00 in - - ()
Sea Level Pressure  
Sea Level Pressure 29.84 in    
Wind  
Wind Speed 12 mph (South)    
Max Wind Speed 23 mph    
Max Gust Speed 33 mph    
Visibility 10 miles    
Events Thunderstorm    
Averages and records for this station are not official NWS values.
T = Trace of Precipitation, MM = Missing Value Source: NWS Daily Summary

Daily Weather History Graph

Daily Weather History Graph

Search for Another Location

Airport:

Trip Planner

Search our weather history database for the weather conditions in past years. The results will help you decide how hot, cold, wet, or windy it might be!

Date:

Astronomy

May. 06, 2013 Rise Set
Actual Time 5:41 AM MST 7:28 PM MST
Civil Twilight 5:14 AM MST 7:55 PM MST
Nautical Twilight 4:41 AM MST 8:29 PM MST
Astronomical Twilight 4:05 AM MST 9:04 PM MST
Moon 3:39 AM MST (5/6) 4:38 PM MST (5/6)
Length of Visible Light 14h 41m
Length of Day
13h 46m
Waning Crescent, 10% of the Moon is Illuminated
May 6
Waning Crescent
May 9
New
May 17
First Quarter
May 24
Full
May 31
Last Quarter

Hourly Weather History & Observations

Time (MST) Temp. Dew Point Humidity Pressure Visibility Wind Dir Wind Speed Gust Speed Precip Events Conditions
12:15 AM 73.4 °F 28.4 °F 19% 29.77 in 10.0 mi SSE 10.4 mph - N/A   Clear
12:35 AM 73.4 °F 28.4 °F 19% 29.78 in 10.0 mi SSE 12.7 mph - N/A   Clear
12:55 AM 73.4 °F 30.2 °F 20% 29.78 in 10.0 mi ESE 12.7 mph - N/A   Clear
1:15 AM 73.4 °F 32.0 °F 22% 29.78 in 10.0 mi ESE 11.5 mph - N/A   Clear
1:35 AM 71.6 °F 32.0 °F 23% 29.78 in 10.0 mi SSE 4.6 mph - N/A   Clear
1:55 AM 69.8 °F 32.0 °F 25% 29.78 in 10.0 mi South 3.5 mph - N/A   Clear
2:15 AM 71.6 °F 32.0 °F 23% 29.77 in 10.0 mi South 11.5 mph - N/A   Clear
2:35 AM 68.0 °F 32.0 °F 26% 29.78 in 10.0 mi SSW 3.5 mph - N/A   Clear
2:55 AM 68.0 °F 32.0 °F 26% 29.78 in 10.0 mi South 6.9 mph - N/A   Clear
3:15 AM 68.0 °F 32.0 °F 26% 29.78 in 10.0 mi SSW 3.5 mph - N/A   Clear
3:55 AM 66.2 °F 32.0 °F 28% 29.79 in 10.0 mi South 5.8 mph - N/A   Clear
4:15 AM 66.2 °F 33.8 °F 30% 29.80 in 10.0 mi SSW 3.5 mph - N/A   Clear
4:35 AM 64.4 °F 35.6 °F 34% 29.80 in 10.0 mi SW 3.5 mph - N/A   Clear
4:55 AM 64.4 °F 35.6 °F 34% 29.81 in 10.0 mi Calm Calm - N/A   Clear
5:15 AM 64.4 °F 37.4 °F 37% 29.82 in 10.0 mi SSW 5.8 mph - N/A   Clear
5:35 AM 66.2 °F 37.4 °F 35% 29.83 in 10.0 mi South 8.1 mph - N/A   Clear
5:55 AM 64.4 °F 39.2 °F 40% 29.85 in 10.0 mi SSW 9.2 mph - N/A   Clear
6:15 AM 64.4 °F 39.2 °F 40% 29.86 in 10.0 mi SW 6.9 mph - N/A   Clear
6:35 AM 64.4 °F 41.0 °F 42% 29.87 in 10.0 mi SSW 8.1 mph - N/A   Clear
6:55 AM 66.2 °F 42.8 °F 43% 29.88 in 10.0 mi SW 4.6 mph - N/A   Clear
7:15 AM 66.2 °F 44.6 °F 46% 29.88 in 10.0 mi SSW 9.2 mph - N/A   Clear
7:35 AM 66.2 °F 44.6 °F 46% 29.89 in 10.0 mi SSW 8.1 mph - N/A   Clear
7:55 AM 68.0 °F 44.6 °F 43% 29.89 in 10.0 mi South 10.4 mph - N/A   Clear
8:15 AM 69.8 °F 42.8 °F 38% 29.89 in 10.0 mi South 18.4 mph 23.0 mph N/A   Clear
8:35 AM 71.6 °F 42.8 °F 35% 29.89 in 10.0 mi South 13.8 mph 21.9 mph N/A   Clear
8:55 AM 71.6 °F 44.6 °F 38% 29.90 in 10.0 mi South 17.3 mph 20.7 mph N/A   Clear
9:15 AM 71.6 °F 44.6 °F 38% 29.90 in 10.0 mi South 18.4 mph 23.0 mph N/A   Clear
9:35 AM 71.6 °F 42.8 °F 35% 29.91 in 10.0 mi South 12.7 mph - N/A   Scattered Clouds
9:55 AM 73.4 °F 42.8 °F 33% 29.92 in 10.0 mi South 10.4 mph - N/A   Scattered Clouds
10:15 AM 73.4 °F 42.8 °F 33% 29.91 in 10.0 mi South 15.0 mph - N/A   Partly Cloudy
10:35 AM 73.4 °F 41.0 °F 31% 29.92 in 10.0 mi South 11.5 mph - N/A   Partly Cloudy
10:55 AM 75.2 °F 41.0 °F 29% 29.92 in 10.0 mi SSE 6.9 mph 18.4 mph N/A   Clear
11:15 AM 75.2 °F 42.8 °F 31% 29.91 in 10.0 mi East 10.4 mph 18.4 mph N/A   Scattered Clouds
11:35 AM 75.2 °F 41.0 °F 29% 29.91 in 10.0 mi SSE 9.2 mph 19.6 mph N/A   Partly Cloudy
11:55 AM 77.0 °F 41.0 °F 28% 29.90 in 10.0 mi SSW 12.7 mph 27.6 mph N/A   Partly Cloudy
12:15 PM 77.0 °F 41.0 °F 28% 29.89 in 10.0 mi South 12.7 mph 24.2 mph N/A   Partly Cloudy
12:35 PM 78.8 °F 41.0 °F 26% 29.88 in 10.0 mi South 16.1 mph 21.9 mph N/A Thunderstorm Partly Cloudy
12:55 PM 78.8 °F 41.0 °F 26% 29.87 in 10.0 mi South 18.4 mph 26.5 mph N/A   Clear
1:15 PM 80.6 °F 39.2 °F 23% 29.86 in 10.0 mi South 16.1 mph 27.6 mph N/A   Clear
1:35 PM 80.6 °F 39.2 °F 23% 29.86 in 10.0 mi SSW 18.4 mph 26.5 mph N/A   Clear
1:55 PM 80.6 °F 39.2 °F 23% 29.85 in 10.0 mi SSE 21.9 mph 28.8 mph N/A   Scattered Clouds
2:15 PM 80.6 °F 39.2 °F 23% 29.84 in 10.0 mi South 18.4 mph 26.5 mph N/A   Mostly Cloudy
2:35 PM 80.6 °F 39.2 °F 23% 29.84 in 10.0 mi South 18.4 mph 27.6 mph N/A   Scattered Clouds
2:55 PM 78.8 °F 39.2 °F 24% 29.83 in 10.0 mi SSE 20.7 mph 25.3 mph N/A   Mostly Cloudy
3:15 PM 80.6 °F 39.2 °F 23% 29.81 in 10.0 mi SE 20.7 mph 28.8 mph N/A   Mostly Cloudy
3:35 PM 80.6 °F 39.2 °F 23% 29.81 in 10.0 mi South 20.7 mph 29.9 mph N/A   Partly Cloudy
3:55 PM 80.6 °F 39.2 °F 23% 29.81 in 10.0 mi South 19.6 mph 26.5 mph N/A   Scattered Clouds
4:15 PM 80.6 °F 39.2 °F 23% 29.80 in 10.0 mi South 23.0 mph 27.6 mph N/A   Partly Cloudy
4:35 PM 80.6 °F 37.4 °F 21% 29.80 in 10.0 mi SSE 20.7 mph 33.4 mph N/A   Partly Cloudy
4:55 PM 80.6 °F 37.4 °F 21% 29.80 in 10.0 mi South 20.7 mph 29.9 mph N/A   Partly Cloudy
5:15 PM 80.6 °F 39.2 °F 23% 29.79 in 10.0 mi South 20.7 mph 29.9 mph N/A   Clear
5:35 PM 80.6 °F 37.4 °F 21% 29.79 in 10.0 mi SSE 18.4 mph 27.6 mph N/A   Clear
5:55 PM 80.6 °F 37.4 °F 21% 29.79 in 10.0 mi SSE 19.6 mph 29.9 mph N/A   Clear
6:15 PM 80.6 °F 37.4 °F 21% 29.78 in 10.0 mi South 23.0 mph 32.2 mph N/A   Partly Cloudy
6:35 PM 80.6 °F 35.6 °F 20% 29.80 in 10.0 mi South 16.1 mph 20.7 mph N/A   Partly Cloudy
6:55 PM 80.6 °F 33.8 °F 18% 29.80 in 10.0 mi SSW 18.4 mph 24.2 mph N/A Thunderstorm Clear
7:15 PM 78.8 °F 33.8 °F 20% 29.80 in 10.0 mi South 19.6 mph 24.2 mph N/A   Clear
7:35 PM 77.0 °F 33.8 °F 21% 29.80 in 10.0 mi South 17.3 mph 21.9 mph N/A   Clear
7:55 PM 77.0 °F 35.6 °F 22% 29.81 in 10.0 mi South 12.7 mph - N/A   Clear
8:15 PM 77.0 °F 35.6 °F 22% 29.81 in 10.0 mi South 19.6 mph 23.0 mph N/A   Clear
8:35 PM 75.2 °F 37.4 °F 25% 29.82 in 10.0 mi South 15.0 mph - N/A   Clear
9:15 PM 75.2 °F 39.2 °F 27% 29.84 in 10.0 mi South 12.7 mph - N/A   Clear
9:35 PM 75.2 °F 39.2 °F 27% 29.85 in 10.0 mi South 13.8 mph - N/A   Clear
9:55 PM 73.4 °F 39.2 °F 29% 29.85 in 10.0 mi South 16.1 mph 20.7 mph N/A   Clear
10:15 PM 73.4 °F 41.0 °F 31% 29.86 in 10.0 mi South 10.4 mph - N/A   Clear
10:35 PM 73.4 °F 41.0 °F 31% 29.86 in 10.0 mi South 11.5 mph - N/A   Clear
10:55 PM 71.6 °F 41.0 °F 33% 29.86 in 10.0 mi South 11.5 mph - N/A   Clear
11:15 PM 71.6 °F 41.0 °F 33% 29.86 in 10.0 mi South 11.5 mph - N/A   Clear
11:35 PM 71.6 °F 41.0 °F 33% 29.86 in 10.0 mi SE 12.7 mph - N/A   Clear
11:55 PM 69.8 °F 42.8 °F 38% 29.87 in 10.0 mi SSE 10.4 mph - N/A   Clear